Index of /20260419/WXO-DD/model_rdps/10km/00/083
Name Last modified Size Description
Parent Directory -
20260419T00Z_MSC_RDPS_AbsoluteVorticity_IsbL-0250_RLatLon0.09_PT083H.grib2 2026-04-19 03:07 609K
20260419T00Z_MSC_RDPS_AbsoluteVorticity_IsbL-0500_RLatLon0.09_PT083H.grib2 2026-04-19 03:07 566K
20260419T00Z_MSC_RDPS_AbsoluteVorticity_IsbL-0700_RLatLon0.09_PT083H.grib2 2026-04-19 03:07 622K
20260419T00Z_MSC_RDPS_AbsoluteVorticity_IsbL-0850_RLatLon0.09_PT083H.grib2 2026-04-19 03:07 793K
20260419T00Z_MSC_RDPS_AirTemp_AGL-120m_RLatLon0.09_PT083H.grib2 2026-04-19 03:07 382K
20260419T00Z_MSC_RDPS_AirTemp_AGL-2m_RLatLon0.09_PT083H.grib2 2026-04-19 03:07 641K
20260419T00Z_MSC_RDPS_AirTemp_AGL-40m_RLatLon0.09_PT083H.grib2 2026-04-19 03:07 402K
20260419T00Z_MSC_RDPS_AirTemp_AGL-80m_RLatLon0.09_PT083H.grib2 2026-04-19 03:07 391K
20260419T00Z_MSC_RDPS_AirTemp_IsbL-0001_RLatLon0.09_PT083H.grib2 2026-04-19 03:07 294K
20260419T00Z_MSC_RDPS_AirTemp_IsbL-0005_RLatLon0.09_PT083H.grib2 2026-04-19 03:07 333K
20260419T00Z_MSC_RDPS_AirTemp_IsbL-0010_RLatLon0.09_PT083H.grib2 2026-04-19 03:07 306K
20260419T00Z_MSC_RDPS_AirTemp_IsbL-0020_RLatLon0.09_PT083H.grib2 2026-04-19 03:07 329K
20260419T00Z_MSC_RDPS_AirTemp_IsbL-0030_RLatLon0.09_PT083H.grib2 2026-04-19 03:07 353K
20260419T00Z_MSC_RDPS_AirTemp_IsbL-0050_RLatLon0.09_PT083H.grib2 2026-04-19 03:07 337K
20260419T00Z_MSC_RDPS_AirTemp_IsbL-0100_RLatLon0.09_PT083H.grib2 2026-04-19 03:07 441K
20260419T00Z_MSC_RDPS_AirTemp_IsbL-0150_RLatLon0.09_PT083H.grib2 2026-04-19 03:07 433K
20260419T00Z_MSC_RDPS_AirTemp_IsbL-0175_RLatLon0.09_PT083H.grib2 2026-04-19 03:07 428K
20260419T00Z_MSC_RDPS_AirTemp_IsbL-0200_RLatLon0.09_PT083H.grib2 2026-04-19 03:07 429K
20260419T00Z_MSC_RDPS_AirTemp_IsbL-0225_RLatLon0.09_PT083H.grib2 2026-04-19 03:07 427K
20260419T00Z_MSC_RDPS_AirTemp_IsbL-0250_RLatLon0.09_PT083H.grib2 2026-04-19 03:07 428K
20260419T00Z_MSC_RDPS_AirTemp_IsbL-0275_RLatLon0.09_PT083H.grib2 2026-04-19 03:07 408K
20260419T00Z_MSC_RDPS_AirTemp_IsbL-0300_RLatLon0.09_PT083H.grib2 2026-04-19 03:07 413K
20260419T00Z_MSC_RDPS_AirTemp_IsbL-0350_RLatLon0.09_PT083H.grib2 2026-04-19 03:07 429K
20260419T00Z_MSC_RDPS_AirTemp_IsbL-0400_RLatLon0.09_PT083H.grib2 2026-04-19 03:07 432K
20260419T00Z_MSC_RDPS_AirTemp_IsbL-0450_RLatLon0.09_PT083H.grib2 2026-04-19 03:07 405K
20260419T00Z_MSC_RDPS_AirTemp_IsbL-0500_RLatLon0.09_PT083H.grib2 2026-04-19 03:07 417K
20260419T00Z_MSC_RDPS_AirTemp_IsbL-0550_RLatLon0.09_PT083H.grib2 2026-04-19 03:07 438K
20260419T00Z_MSC_RDPS_AirTemp_IsbL-0600_RLatLon0.09_PT083H.grib2 2026-04-19 03:07 457K
20260419T00Z_MSC_RDPS_AirTemp_IsbL-0650_RLatLon0.09_PT083H.grib2 2026-04-19 03:07 471K
20260419T00Z_MSC_RDPS_AirTemp_IsbL-0700_RLatLon0.09_PT083H.grib2 2026-04-19 03:07 495K
20260419T00Z_MSC_RDPS_AirTemp_IsbL-0750_RLatLon0.09_PT083H.grib2 2026-04-19 03:07 536K
20260419T00Z_MSC_RDPS_AirTemp_IsbL-0800_RLatLon0.09_PT083H.grib2 2026-04-19 03:07 594K
20260419T00Z_MSC_RDPS_AirTemp_IsbL-0850_RLatLon0.09_PT083H.grib2 2026-04-19 03:07 513K
20260419T00Z_MSC_RDPS_AirTemp_IsbL-0875_RLatLon0.09_PT083H.grib2 2026-04-19 03:07 523K
20260419T00Z_MSC_RDPS_AirTemp_IsbL-0900_RLatLon0.09_PT083H.grib2 2026-04-19 03:07 526K
20260419T00Z_MSC_RDPS_AirTemp_IsbL-0925_RLatLon0.09_PT083H.grib2 2026-04-19 03:07 518K
20260419T00Z_MSC_RDPS_AirTemp_IsbL-0950_RLatLon0.09_PT083H.grib2 2026-04-19 03:07 526K
20260419T00Z_MSC_RDPS_AirTemp_IsbL-0970_RLatLon0.09_PT083H.grib2 2026-04-19 03:07 528K
20260419T00Z_MSC_RDPS_AirTemp_IsbL-0985_RLatLon0.09_PT083H.grib2 2026-04-19 03:07 521K
20260419T00Z_MSC_RDPS_AirTemp_IsbL-1000_RLatLon0.09_PT083H.grib2 2026-04-19 03:07 505K
20260419T00Z_MSC_RDPS_AirTemp_IsbL-1015_RLatLon0.09_PT083H.grib2 2026-04-19 03:07 499K
20260419T00Z_MSC_RDPS_Albedo_Sfc_RLatLon0.09_PT083H.grib2 2026-04-19 03:07 162K
20260419T00Z_MSC_RDPS_CAPE_Sfc_RLatLon0.09_PT083H.grib2 2026-04-19 03:07 1.6M
20260419T00Z_MSC_RDPS_CIN_Sfc_RLatLon0.09_PT083H.grib2 2026-04-19 03:07 1.0M
20260419T00Z_MSC_RDPS_CloudWater_EAtm_RLatLon0.09_PT083H.grib2 2026-04-19 03:07 217K
20260419T00Z_MSC_RDPS_ConvectivePrecip-Accum_Sfc_RLatLon0.09_PT083H.grib2 2026-04-19 03:07 1.4M
20260419T00Z_MSC_RDPS_DewPointDepression_AGL-2m_RLatLon0.09_PT083H.grib2 2026-04-19 03:07 389K
20260419T00Z_MSC_RDPS_DewPointDepression_IsbL-0001_RLatLon0.09_PT083H.grib2 2026-04-19 03:07 193
20260419T00Z_MSC_RDPS_DewPointDepression_IsbL-0005_RLatLon0.09_PT083H.grib2 2026-04-19 03:07 193
20260419T00Z_MSC_RDPS_DewPointDepression_IsbL-0010_RLatLon0.09_PT083H.grib2 2026-04-19 03:07 193
20260419T00Z_MSC_RDPS_DewPointDepression_IsbL-0020_RLatLon0.09_PT083H.grib2 2026-04-19 03:07 193
20260419T00Z_MSC_RDPS_DewPointDepression_IsbL-0030_RLatLon0.09_PT083H.grib2 2026-04-19 03:07 193
20260419T00Z_MSC_RDPS_DewPointDepression_IsbL-0050_RLatLon0.09_PT083H.grib2 2026-04-19 03:07 106K
20260419T00Z_MSC_RDPS_DewPointDepression_IsbL-0100_RLatLon0.09_PT083H.grib2 2026-04-19 03:07 130K
20260419T00Z_MSC_RDPS_DewPointDepression_IsbL-0150_RLatLon0.09_PT083H.grib2 2026-04-19 03:07 154K
20260419T00Z_MSC_RDPS_DewPointDepression_IsbL-0175_RLatLon0.09_PT083H.grib2 2026-04-19 03:07 190K
20260419T00Z_MSC_RDPS_DewPointDepression_IsbL-0200_RLatLon0.09_PT083H.grib2 2026-04-19 03:07 230K
20260419T00Z_MSC_RDPS_DewPointDepression_IsbL-0225_RLatLon0.09_PT083H.grib2 2026-04-19 03:07 260K
20260419T00Z_MSC_RDPS_DewPointDepression_IsbL-0250_RLatLon0.09_PT083H.grib2 2026-04-19 03:07 295K
20260419T00Z_MSC_RDPS_DewPointDepression_IsbL-0275_RLatLon0.09_PT083H.grib2 2026-04-19 03:07 307K
20260419T00Z_MSC_RDPS_DewPointDepression_IsbL-0300_RLatLon0.09_PT083H.grib2 2026-04-19 03:07 330K
20260419T00Z_MSC_RDPS_DewPointDepression_IsbL-0350_RLatLon0.09_PT083H.grib2 2026-04-19 03:07 336K
20260419T00Z_MSC_RDPS_DewPointDepression_IsbL-0400_RLatLon0.09_PT083H.grib2 2026-04-19 03:07 346K
20260419T00Z_MSC_RDPS_DewPointDepression_IsbL-0450_RLatLon0.09_PT083H.grib2 2026-04-19 03:07 351K
20260419T00Z_MSC_RDPS_DewPointDepression_IsbL-0500_RLatLon0.09_PT083H.grib2 2026-04-19 03:07 359K
20260419T00Z_MSC_RDPS_DewPointDepression_IsbL-0550_RLatLon0.09_PT083H.grib2 2026-04-19 03:07 376K
20260419T00Z_MSC_RDPS_DewPointDepression_IsbL-0600_RLatLon0.09_PT083H.grib2 2026-04-19 03:07 390K
20260419T00Z_MSC_RDPS_DewPointDepression_IsbL-0650_RLatLon0.09_PT083H.grib2 2026-04-19 03:07 391K
20260419T00Z_MSC_RDPS_DewPointDepression_IsbL-0700_RLatLon0.09_PT083H.grib2 2026-04-19 03:07 398K
20260419T00Z_MSC_RDPS_DewPointDepression_IsbL-0750_RLatLon0.09_PT083H.grib2 2026-04-19 03:07 416K
20260419T00Z_MSC_RDPS_DewPointDepression_IsbL-0800_RLatLon0.09_PT083H.grib2 2026-04-19 03:07 452K
20260419T00Z_MSC_RDPS_DewPointDepression_IsbL-0850_RLatLon0.09_PT083H.grib2 2026-04-19 03:07 467K
20260419T00Z_MSC_RDPS_DewPointDepression_IsbL-0875_RLatLon0.09_PT083H.grib2 2026-04-19 03:07 458K
20260419T00Z_MSC_RDPS_DewPointDepression_IsbL-0900_RLatLon0.09_PT083H.grib2 2026-04-19 03:07 450K
20260419T00Z_MSC_RDPS_DewPointDepression_IsbL-0925_RLatLon0.09_PT083H.grib2 2026-04-19 03:07 442K
20260419T00Z_MSC_RDPS_DewPointDepression_IsbL-0950_RLatLon0.09_PT083H.grib2 2026-04-19 03:07 439K
20260419T00Z_MSC_RDPS_DewPointDepression_IsbL-0970_RLatLon0.09_PT083H.grib2 2026-04-19 03:07 435K
20260419T00Z_MSC_RDPS_DewPointDepression_IsbL-0985_RLatLon0.09_PT083H.grib2 2026-04-19 03:07 433K
20260419T00Z_MSC_RDPS_DewPointDepression_IsbL-1000_RLatLon0.09_PT083H.grib2 2026-04-19 03:07 430K
20260419T00Z_MSC_RDPS_DewPointDepression_IsbL-1015_RLatLon0.09_PT083H.grib2 2026-04-19 03:07 422K
20260419T00Z_MSC_RDPS_DewPoint_AGL-2m_RLatLon0.09_PT083H.grib2 2026-04-19 03:07 314K
20260419T00Z_MSC_RDPS_DownwardLongwaveRadiationFlux-Accum_Sfc_RLatLon0.09_PT083H.grib2 2026-04-19 03:07 434K
20260419T00Z_MSC_RDPS_DownwardShortwaveRadiationFlux-Accum_NTAtm_RLatLon0.09_PT083H.grib2 2026-04-19 03:07 103K
20260419T00Z_MSC_RDPS_DownwardShortwaveRadiationFlux-Accum_Sfc_RLatLon0.09_PT083H.grib2 2026-04-19 03:07 616K
20260419T00Z_MSC_RDPS_FreezingRain-Accum1h_Sfc_RLatLon0.09_PT083H.grib2 2026-04-19 03:07 29K
20260419T00Z_MSC_RDPS_FreezingRain-Accum_Sfc_RLatLon0.09_PT083H.grib2 2026-04-19 03:07 142K
20260419T00Z_MSC_RDPS_GeopotentialHeight_IsbL-0001_RLatLon0.09_PT083H.grib2 2026-04-19 03:07 275K
20260419T00Z_MSC_RDPS_GeopotentialHeight_IsbL-0005_RLatLon0.09_PT083H.grib2 2026-04-19 03:07 315K
20260419T00Z_MSC_RDPS_GeopotentialHeight_IsbL-0010_RLatLon0.09_PT083H.grib2 2026-04-19 03:07 347K
20260419T00Z_MSC_RDPS_GeopotentialHeight_IsbL-0020_RLatLon0.09_PT083H.grib2 2026-04-19 03:07 316K
20260419T00Z_MSC_RDPS_GeopotentialHeight_IsbL-0030_RLatLon0.09_PT083H.grib2 2026-04-19 03:07 318K
20260419T00Z_MSC_RDPS_GeopotentialHeight_IsbL-0050_RLatLon0.09_PT083H.grib2 2026-04-19 03:07 321K
20260419T00Z_MSC_RDPS_GeopotentialHeight_IsbL-0100_RLatLon0.09_PT083H.grib2 2026-04-19 03:07 296K
20260419T00Z_MSC_RDPS_GeopotentialHeight_IsbL-0150_RLatLon0.09_PT083H.grib2 2026-04-19 03:07 236K
20260419T00Z_MSC_RDPS_GeopotentialHeight_IsbL-0175_RLatLon0.09_PT083H.grib2 2026-04-19 03:07 270K
20260419T00Z_MSC_RDPS_GeopotentialHeight_IsbL-0200_RLatLon0.09_PT083H.grib2 2026-04-19 03:07 273K
20260419T00Z_MSC_RDPS_GeopotentialHeight_IsbL-0225_RLatLon0.09_PT083H.grib2 2026-04-19 03:07 275K
20260419T00Z_MSC_RDPS_GeopotentialHeight_IsbL-0250_RLatLon0.09_PT083H.grib2 2026-04-19 03:07 275K
20260419T00Z_MSC_RDPS_GeopotentialHeight_IsbL-0275_RLatLon0.09_PT083H.grib2 2026-04-19 03:07 273K
20260419T00Z_MSC_RDPS_GeopotentialHeight_IsbL-0300_RLatLon0.09_PT083H.grib2 2026-04-19 03:07 273K
20260419T00Z_MSC_RDPS_GeopotentialHeight_IsbL-0350_RLatLon0.09_PT083H.grib2 2026-04-19 03:07 239K
20260419T00Z_MSC_RDPS_GeopotentialHeight_IsbL-0400_RLatLon0.09_PT083H.grib2 2026-04-19 03:07 236K
20260419T00Z_MSC_RDPS_GeopotentialHeight_IsbL-0450_RLatLon0.09_PT083H.grib2 2026-04-19 03:07 307K
20260419T00Z_MSC_RDPS_GeopotentialHeight_IsbL-0500_RLatLon0.09_PT083H.grib2 2026-04-19 03:07 302K
20260419T00Z_MSC_RDPS_GeopotentialHeight_IsbL-0550_RLatLon0.09_PT083H.grib2 2026-04-19 03:07 298K
20260419T00Z_MSC_RDPS_GeopotentialHeight_IsbL-0600_RLatLon0.09_PT083H.grib2 2026-04-19 03:07 293K
20260419T00Z_MSC_RDPS_GeopotentialHeight_IsbL-0650_RLatLon0.09_PT083H.grib2 2026-04-19 03:07 264K
20260419T00Z_MSC_RDPS_GeopotentialHeight_IsbL-0700_RLatLon0.09_PT083H.grib2 2026-04-19 03:07 261K
20260419T00Z_MSC_RDPS_GeopotentialHeight_IsbL-0750_RLatLon0.09_PT083H.grib2 2026-04-19 03:07 262K
20260419T00Z_MSC_RDPS_GeopotentialHeight_IsbL-0800_RLatLon0.09_PT083H.grib2 2026-04-19 03:07 268K
20260419T00Z_MSC_RDPS_GeopotentialHeight_IsbL-0850_RLatLon0.09_PT083H.grib2 2026-04-19 03:07 274K
20260419T00Z_MSC_RDPS_GeopotentialHeight_IsbL-0875_RLatLon0.09_PT083H.grib2 2026-04-19 03:07 274K
20260419T00Z_MSC_RDPS_GeopotentialHeight_IsbL-0900_RLatLon0.09_PT083H.grib2 2026-04-19 03:07 279K
20260419T00Z_MSC_RDPS_GeopotentialHeight_IsbL-0925_RLatLon0.09_PT083H.grib2 2026-04-19 03:07 282K
20260419T00Z_MSC_RDPS_GeopotentialHeight_IsbL-0950_RLatLon0.09_PT083H.grib2 2026-04-19 03:07 285K
20260419T00Z_MSC_RDPS_GeopotentialHeight_IsbL-0970_RLatLon0.09_PT083H.grib2 2026-04-19 03:07 289K
20260419T00Z_MSC_RDPS_GeopotentialHeight_IsbL-0985_RLatLon0.09_PT083H.grib2 2026-04-19 03:07 296K
20260419T00Z_MSC_RDPS_GeopotentialHeight_IsbL-1000_RLatLon0.09_PT083H.grib2 2026-04-19 03:07 306K
20260419T00Z_MSC_RDPS_GeopotentialHeight_IsbL-1015_RLatLon0.09_PT083H.grib2 2026-04-19 03:07 317K
20260419T00Z_MSC_RDPS_Humidex_Sfc_RLatLon0.09_PT083H.grib2 2026-04-19 03:07 2.4M
20260419T00Z_MSC_RDPS_IcePellets-Accum1h_Sfc_RLatLon0.09_PT083H.grib2 2026-04-19 03:07 11K
20260419T00Z_MSC_RDPS_IcePellets-Accum_Sfc_RLatLon0.09_PT083H.grib2 2026-04-19 03:07 52K
20260419T00Z_MSC_RDPS_KIndex_Sfc_RLatLon0.09_PT083H.grib2 2026-04-19 03:07 2.5M
20260419T00Z_MSC_RDPS_LatentHeatNetFlux_Sfc_RLatLon0.09_PT083H.grib2 2026-04-19 03:07 417K
20260419T00Z_MSC_RDPS_LiftedIndex-MU-VT_IsbL-0500_RLatLon0.09_PT083H.grib2 2026-04-19 03:07 2.4M
20260419T00Z_MSC_RDPS_NetLongwaveRadiationFlux-Accum_Sfc_RLatLon0.09_PT083H.grib2 2026-04-19 03:07 484K
20260419T00Z_MSC_RDPS_NetShortwaveRadiationFlux-Accum_Sfc_RLatLon0.09_PT083H.grib2 2026-04-19 03:07 630K
20260419T00Z_MSC_RDPS_PlanetaryBoundaryLayerHeight_Sfc_RLatLon0.09_PT083H.grib2 2026-04-19 03:07 1.1M
20260419T00Z_MSC_RDPS_Precip-Accum1h_Sfc_RLatLon0.09_PT083H.grib2 2026-04-19 03:07 1.3M
20260419T00Z_MSC_RDPS_Precip-Accum_Sfc_RLatLon0.09_PT083H.grib2 2026-04-19 03:07 2.1M
20260419T00Z_MSC_RDPS_PrecipRate_Sfc_RLatLon0.09_PT083H.grib2 2026-04-19 03:07 194K
20260419T00Z_MSC_RDPS_PrecipType-Instant_Sfc_RLatLon0.09_PT083H.grib2 2026-04-19 03:07 616K
20260419T00Z_MSC_RDPS_Pressure-Trend3h_Sfc_RLatLon0.09_PT083H.grib2 2026-04-19 03:07 1.2M
20260419T00Z_MSC_RDPS_Pressure_MSL_RLatLon0.09_PT083H.grib2 2026-04-19 03:07 298K
20260419T00Z_MSC_RDPS_Pressure_PVU-1.5_RLatLon0.09_PT083H.grib2 2026-04-19 03:07 2.3M
20260419T00Z_MSC_RDPS_Pressure_PVU-1_RLatLon0.09_PT083H.grib2 2026-04-19 03:07 2.4M
20260419T00Z_MSC_RDPS_Pressure_PVU-2_RLatLon0.09_PT083H.grib2 2026-04-19 03:07 2.4M
20260419T00Z_MSC_RDPS_Pressure_Sfc_RLatLon0.09_PT083H.grib2 2026-04-19 03:07 503K
20260419T00Z_MSC_RDPS_RadiativeTemp_Sfc_RLatLon0.09_PT083H.grib2 2026-04-19 03:07 310K
20260419T00Z_MSC_RDPS_Rain-Accum1h_Sfc_RLatLon0.09_PT083H.grib2 2026-04-19 03:07 577K
20260419T00Z_MSC_RDPS_Rain-Accum_Sfc_RLatLon0.09_PT083H.grib2 2026-04-19 03:07 1.7M
20260419T00Z_MSC_RDPS_RelativeHumidity_AGL-2m_RLatLon0.09_PT083H.grib2 2026-04-19 03:07 1.0M
20260419T00Z_MSC_RDPS_RelativeHumidity_IsbL-0010_RLatLon0.09_PT083H.grib2 2026-04-19 03:07 618K
20260419T00Z_MSC_RDPS_RelativeHumidity_IsbL-0020_RLatLon0.09_PT083H.grib2 2026-04-19 03:07 569K
20260419T00Z_MSC_RDPS_RelativeHumidity_IsbL-0030_RLatLon0.09_PT083H.grib2 2026-04-19 03:07 548K
20260419T00Z_MSC_RDPS_RelativeHumidity_IsbL-0050_RLatLon0.09_PT083H.grib2 2026-04-19 03:07 292K
20260419T00Z_MSC_RDPS_RelativeHumidity_IsbL-0100_RLatLon0.09_PT083H.grib2 2026-04-19 03:07 382K
20260419T00Z_MSC_RDPS_RelativeHumidity_IsbL-0150_RLatLon0.09_PT083H.grib2 2026-04-19 03:07 382K
20260419T00Z_MSC_RDPS_RelativeHumidity_IsbL-0175_RLatLon0.09_PT083H.grib2 2026-04-19 03:07 473K
20260419T00Z_MSC_RDPS_RelativeHumidity_IsbL-0200_RLatLon0.09_PT083H.grib2 2026-04-19 03:07 566K
20260419T00Z_MSC_RDPS_RelativeHumidity_IsbL-0225_RLatLon0.09_PT083H.grib2 2026-04-19 03:07 634K
20260419T00Z_MSC_RDPS_RelativeHumidity_IsbL-0250_RLatLon0.09_PT083H.grib2 2026-04-19 03:07 696K
20260419T00Z_MSC_RDPS_RelativeHumidity_IsbL-0275_RLatLon0.09_PT083H.grib2 2026-04-19 03:07 716K
20260419T00Z_MSC_RDPS_RelativeHumidity_IsbL-0300_RLatLon0.09_PT083H.grib2 2026-04-19 03:07 756K
20260419T00Z_MSC_RDPS_RelativeHumidity_IsbL-0350_RLatLon0.09_PT083H.grib2 2026-04-19 03:07 770K
20260419T00Z_MSC_RDPS_RelativeHumidity_IsbL-0400_RLatLon0.09_PT083H.grib2 2026-04-19 03:07 789K
20260419T00Z_MSC_RDPS_RelativeHumidity_IsbL-0450_RLatLon0.09_PT083H.grib2 2026-04-19 03:07 797K
20260419T00Z_MSC_RDPS_RelativeHumidity_IsbL-0500_RLatLon0.09_PT083H.grib2 2026-04-19 03:07 805K
20260419T00Z_MSC_RDPS_RelativeHumidity_IsbL-0550_RLatLon0.09_PT083H.grib2 2026-04-19 03:07 830K
20260419T00Z_MSC_RDPS_RelativeHumidity_IsbL-0600_RLatLon0.09_PT083H.grib2 2026-04-19 03:07 863K
20260419T00Z_MSC_RDPS_RelativeHumidity_IsbL-0650_RLatLon0.09_PT083H.grib2 2026-04-19 03:07 862K
20260419T00Z_MSC_RDPS_RelativeHumidity_IsbL-0700_RLatLon0.09_PT083H.grib2 2026-04-19 03:07 876K
20260419T00Z_MSC_RDPS_RelativeHumidity_IsbL-0750_RLatLon0.09_PT083H.grib2 2026-04-19 03:07 916K
20260419T00Z_MSC_RDPS_RelativeHumidity_IsbL-0800_RLatLon0.09_PT083H.grib2 2026-04-19 03:07 1.0M
20260419T00Z_MSC_RDPS_RelativeHumidity_IsbL-0850_RLatLon0.09_PT083H.grib2 2026-04-19 03:07 1.0M
20260419T00Z_MSC_RDPS_RelativeHumidity_IsbL-0875_RLatLon0.09_PT083H.grib2 2026-04-19 03:07 1.0M
20260419T00Z_MSC_RDPS_RelativeHumidity_IsbL-0900_RLatLon0.09_PT083H.grib2 2026-04-19 03:07 1.1M
20260419T00Z_MSC_RDPS_RelativeHumidity_IsbL-0925_RLatLon0.09_PT083H.grib2 2026-04-19 03:07 1.1M
20260419T00Z_MSC_RDPS_RelativeHumidity_IsbL-0950_RLatLon0.09_PT083H.grib2 2026-04-19 03:07 1.1M
20260419T00Z_MSC_RDPS_RelativeHumidity_IsbL-0970_RLatLon0.09_PT083H.grib2 2026-04-19 03:07 1.0M
20260419T00Z_MSC_RDPS_RelativeHumidity_IsbL-0985_RLatLon0.09_PT083H.grib2 2026-04-19 03:07 1.0M
20260419T00Z_MSC_RDPS_RelativeHumidity_IsbL-1000_RLatLon0.09_PT083H.grib2 2026-04-19 03:07 1.0M
20260419T00Z_MSC_RDPS_RelativeHumidity_IsbL-1015_RLatLon0.09_PT083H.grib2 2026-04-19 03:07 1.0M
20260419T00Z_MSC_RDPS_Runoff-Accum_Sfc_RLatLon0.09_PT083H.grib2 2026-04-19 03:07 75K
20260419T00Z_MSC_RDPS_SWEATIndex_Sfc_RLatLon0.09_PT083H.grib2 2026-04-19 03:07 2.4M
20260419T00Z_MSC_RDPS_SeeingIndex_EAtm_RLatLon0.09_PT083H.grib2 2026-04-19 03:07 1.0M
20260419T00Z_MSC_RDPS_SensibleHeatNetFlux_Sfc_RLatLon0.09_PT083H.grib2 2026-04-19 03:07 307K
20260419T00Z_MSC_RDPS_ShowalterIndex_IsbL-0500_RLatLon0.09_PT083H.grib2 2026-04-19 03:07 2.6M
20260419T00Z_MSC_RDPS_SkyTransparencyIndex_EAtm_RLatLon0.09_PT083H.grib2 2026-04-19 03:07 725K
20260419T00Z_MSC_RDPS_Snow-Accum1h_Sfc_RLatLon0.09_PT083H.grib2 2026-04-19 03:07 535K
20260419T00Z_MSC_RDPS_Snow-Accum_Sfc_RLatLon0.09_PT083H.grib2 2026-04-19 03:07 782K
20260419T00Z_MSC_RDPS_SnowDensity_Sfc_RLatLon0.09_PT083H.grib2 2026-04-19 03:07 177K
20260419T00Z_MSC_RDPS_SnowDepth_Sfc_RLatLon0.09_PT083H.grib2 2026-04-19 03:07 720K
20260419T00Z_MSC_RDPS_SoilTemp_DBS-0to10cm_RLatLon0.09_PT083H.grib2 2026-04-19 03:07 243K
20260419T00Z_MSC_RDPS_SoilTemp_Sfc_RLatLon0.09_PT083H.grib2 2026-04-19 03:07 275K
20260419T00Z_MSC_RDPS_SoilVolumetricIceContent_Sfc_RLatLon0.09_PT083H.grib2 2026-04-19 03:07 170K
20260419T00Z_MSC_RDPS_SoilVolumetricWaterContent_DBS-0to10cm_RLatLon0.09_PT083H.grib2 2026-04-19 03:07 251K
20260419T00Z_MSC_RDPS_SoilVolumetricWaterContent_DBS-0to1cm_RLatLon0.09_PT083H.grib2 2026-04-19 03:07 341K
20260419T00Z_MSC_RDPS_SpecificHumidity_AGL-120m_RLatLon0.09_PT083H.grib2 2026-04-19 03:07 481K
20260419T00Z_MSC_RDPS_SpecificHumidity_AGL-2m_RLatLon0.09_PT083H.grib2 2026-04-19 03:07 649K
20260419T00Z_MSC_RDPS_SpecificHumidity_AGL-40m_RLatLon0.09_PT083H.grib2 2026-04-19 03:07 489K
20260419T00Z_MSC_RDPS_SpecificHumidity_AGL-80m_RLatLon0.09_PT083H.grib2 2026-04-19 03:07 484K
20260419T00Z_MSC_RDPS_SpecificHumidity_IsbL-0001_RLatLon0.09_PT083H.grib2 2026-04-19 03:07 321K
20260419T00Z_MSC_RDPS_SpecificHumidity_IsbL-0005_RLatLon0.09_PT083H.grib2 2026-04-19 03:07 394K
20260419T00Z_MSC_RDPS_SpecificHumidity_IsbL-0010_RLatLon0.09_PT083H.grib2 2026-04-19 03:07 368K
20260419T00Z_MSC_RDPS_SpecificHumidity_IsbL-0020_RLatLon0.09_PT083H.grib2 2026-04-19 03:07 362K
20260419T00Z_MSC_RDPS_SpecificHumidity_IsbL-0030_RLatLon0.09_PT083H.grib2 2026-04-19 03:07 432K
20260419T00Z_MSC_RDPS_SpecificHumidity_IsbL-0050_RLatLon0.09_PT083H.grib2 2026-04-19 03:07 459K
20260419T00Z_MSC_RDPS_SpecificHumidity_IsbL-0100_RLatLon0.09_PT083H.grib2 2026-04-19 03:07 520K
20260419T00Z_MSC_RDPS_SpecificHumidity_IsbL-0150_RLatLon0.09_PT083H.grib2 2026-04-19 03:07 435K
20260419T00Z_MSC_RDPS_SpecificHumidity_IsbL-0175_RLatLon0.09_PT083H.grib2 2026-04-19 03:07 525K
20260419T00Z_MSC_RDPS_SpecificHumidity_IsbL-0200_RLatLon0.09_PT083H.grib2 2026-04-19 03:07 551K
20260419T00Z_MSC_RDPS_SpecificHumidity_IsbL-0225_RLatLon0.09_PT083H.grib2 2026-04-19 03:07 555K
20260419T00Z_MSC_RDPS_SpecificHumidity_IsbL-0250_RLatLon0.09_PT083H.grib2 2026-04-19 03:07 555K
20260419T00Z_MSC_RDPS_SpecificHumidity_IsbL-0275_RLatLon0.09_PT083H.grib2 2026-04-19 03:07 472K
20260419T00Z_MSC_RDPS_SpecificHumidity_IsbL-0300_RLatLon0.09_PT083H.grib2 2026-04-19 03:07 544K
20260419T00Z_MSC_RDPS_SpecificHumidity_IsbL-0350_RLatLon0.09_PT083H.grib2 2026-04-19 03:07 533K
20260419T00Z_MSC_RDPS_SpecificHumidity_IsbL-0400_RLatLon0.09_PT083H.grib2 2026-04-19 03:07 517K
20260419T00Z_MSC_RDPS_SpecificHumidity_IsbL-0450_RLatLon0.09_PT083H.grib2 2026-04-19 03:07 572K
20260419T00Z_MSC_RDPS_SpecificHumidity_IsbL-0500_RLatLon0.09_PT083H.grib2 2026-04-19 03:07 508K
20260419T00Z_MSC_RDPS_SpecificHumidity_IsbL-0550_RLatLon0.09_PT083H.grib2 2026-04-19 03:07 569K
20260419T00Z_MSC_RDPS_SpecificHumidity_IsbL-0600_RLatLon0.09_PT083H.grib2 2026-04-19 03:07 641K
20260419T00Z_MSC_RDPS_SpecificHumidity_IsbL-0650_RLatLon0.09_PT083H.grib2 2026-04-19 03:07 679K
20260419T00Z_MSC_RDPS_SpecificHumidity_IsbL-0700_RLatLon0.09_PT083H.grib2 2026-04-19 03:07 589K
20260419T00Z_MSC_RDPS_SpecificHumidity_IsbL-0750_RLatLon0.09_PT083H.grib2 2026-04-19 03:07 639K
20260419T00Z_MSC_RDPS_SpecificHumidity_IsbL-0800_RLatLon0.09_PT083H.grib2 2026-04-19 03:07 718K
20260419T00Z_MSC_RDPS_SpecificHumidity_IsbL-0850_RLatLon0.09_PT083H.grib2 2026-04-19 03:07 790K
20260419T00Z_MSC_RDPS_SpecificHumidity_IsbL-0875_RLatLon0.09_PT083H.grib2 2026-04-19 03:07 806K
20260419T00Z_MSC_RDPS_SpecificHumidity_IsbL-0900_RLatLon0.09_PT083H.grib2 2026-04-19 03:07 815K
20260419T00Z_MSC_RDPS_SpecificHumidity_IsbL-0925_RLatLon0.09_PT083H.grib2 2026-04-19 03:07 816K
20260419T00Z_MSC_RDPS_SpecificHumidity_IsbL-0950_RLatLon0.09_PT083H.grib2 2026-04-19 03:07 820K
20260419T00Z_MSC_RDPS_SpecificHumidity_IsbL-0970_RLatLon0.09_PT083H.grib2 2026-04-19 03:07 817K
20260419T00Z_MSC_RDPS_SpecificHumidity_IsbL-0985_RLatLon0.09_PT083H.grib2 2026-04-19 03:07 674K
20260419T00Z_MSC_RDPS_SpecificHumidity_IsbL-1000_RLatLon0.09_PT083H.grib2 2026-04-19 03:07 667K
20260419T00Z_MSC_RDPS_SpecificHumidity_IsbL-1015_RLatLon0.09_PT083H.grib2 2026-04-19 03:07 658K
20260419T00Z_MSC_RDPS_SpecificHumidity_Sfc_RLatLon0.09_PT083H.grib2 2026-04-19 03:07 287K
20260419T00Z_MSC_RDPS_StormRelativeHelicity_EtaL-10000_RLatLon0.09_PT083H.grib2 2026-04-19 03:07 1.2M
20260419T00Z_MSC_RDPS_StormSeverityIndex_EtaL-10000_RLatLon0.09_PT083H.grib2 2026-04-19 03:07 1.2M
20260419T00Z_MSC_RDPS_Thickness_IsbL-0850to0700_RLatLon0.09_PT083H.grib2 2026-04-19 03:07 181K
20260419T00Z_MSC_RDPS_Thickness_IsbL-1000to0500_RLatLon0.09_PT083H.grib2 2026-04-19 03:07 205K
20260419T00Z_MSC_RDPS_Thickness_IsbL-1000to0850_RLatLon0.09_PT083H.grib2 2026-04-19 03:07 263K
20260419T00Z_MSC_RDPS_TotalCloudCover_Sfc_RLatLon0.09_PT083H.grib2 2026-04-19 03:07 679K
20260419T00Z_MSC_RDPS_TotalTotalsIndex_Sfc_RLatLon0.09_PT083H.grib2 2026-04-19 03:07 2.5M
20260419T00Z_MSC_RDPS_UVIndex-ClearSky_Sfc_RLatLon0.09_PT083H.grib2 2026-04-19 03:07 110K
20260419T00Z_MSC_RDPS_UVIndex_Sfc_RLatLon0.09_PT083H.grib2 2026-04-19 03:07 247K
20260419T00Z_MSC_RDPS_UpwardLongwaveRadiationFlux_NTAtm_RLatLon0.09_PT083H.grib2 2026-04-19 03:07 489K
20260419T00Z_MSC_RDPS_UpwardShortwaveRadiationFlux_NTAtm_RLatLon0.09_PT083H.grib2 2026-04-19 03:07 237K
20260419T00Z_MSC_RDPS_VerticalVelocity_IsbL-0250_RLatLon0.09_PT083H.grib2 2026-04-19 03:07 435K
20260419T00Z_MSC_RDPS_VerticalVelocity_IsbL-0500_RLatLon0.09_PT083H.grib2 2026-04-19 03:07 569K
20260419T00Z_MSC_RDPS_VerticalVelocity_IsbL-0700_RLatLon0.09_PT083H.grib2 2026-04-19 03:07 617K
20260419T00Z_MSC_RDPS_VerticalVelocity_IsbL-0850_RLatLon0.09_PT083H.grib2 2026-04-19 03:07 707K
20260419T00Z_MSC_RDPS_VerticalWindShear_EtaL-6500_RLatLon0.09_PT083H.grib2 2026-04-19 03:07 1.2M
20260419T00Z_MSC_RDPS_WindChill_Sfc_RLatLon0.09_PT083H.grib2 2026-04-19 03:07 1.3M
20260419T00Z_MSC_RDPS_WindDir_AGL-10m_RLatLon0.09_PT083H.grib2 2026-04-19 03:07 1.0M
20260419T00Z_MSC_RDPS_WindDir_AGL-120m_RLatLon0.09_PT083H.grib2 2026-04-19 03:07 602K
20260419T00Z_MSC_RDPS_WindDir_AGL-40m_RLatLon0.09_PT083H.grib2 2026-04-19 03:07 640K
20260419T00Z_MSC_RDPS_WindDir_AGL-80m_RLatLon0.09_PT083H.grib2 2026-04-19 03:07 616K
20260419T00Z_MSC_RDPS_WindDir_IsbL-0001_RLatLon0.09_PT083H.grib2 2026-04-19 03:07 293K
20260419T00Z_MSC_RDPS_WindDir_IsbL-0005_RLatLon0.09_PT083H.grib2 2026-04-19 03:07 371K
20260419T00Z_MSC_RDPS_WindDir_IsbL-0010_RLatLon0.09_PT083H.grib2 2026-04-19 03:07 378K
20260419T00Z_MSC_RDPS_WindDir_IsbL-0020_RLatLon0.09_PT083H.grib2 2026-04-19 03:07 409K
20260419T00Z_MSC_RDPS_WindDir_IsbL-0030_RLatLon0.09_PT083H.grib2 2026-04-19 03:07 420K
20260419T00Z_MSC_RDPS_WindDir_IsbL-0050_RLatLon0.09_PT083H.grib2 2026-04-19 03:07 425K
20260419T00Z_MSC_RDPS_WindDir_IsbL-0100_RLatLon0.09_PT083H.grib2 2026-04-19 03:07 424K
20260419T00Z_MSC_RDPS_WindDir_IsbL-0150_RLatLon0.09_PT083H.grib2 2026-04-19 03:07 419K
20260419T00Z_MSC_RDPS_WindDir_IsbL-0175_RLatLon0.09_PT083H.grib2 2026-04-19 03:07 439K
20260419T00Z_MSC_RDPS_WindDir_IsbL-0200_RLatLon0.09_PT083H.grib2 2026-04-19 03:07 450K
20260419T00Z_MSC_RDPS_WindDir_IsbL-0225_RLatLon0.09_PT083H.grib2 2026-04-19 03:07 451K
20260419T00Z_MSC_RDPS_WindDir_IsbL-0250_RLatLon0.09_PT083H.grib2 2026-04-19 03:07 452K
20260419T00Z_MSC_RDPS_WindDir_IsbL-0275_RLatLon0.09_PT083H.grib2 2026-04-19 03:07 466K
20260419T00Z_MSC_RDPS_WindDir_IsbL-0300_RLatLon0.09_PT083H.grib2 2026-04-19 03:07 460K
20260419T00Z_MSC_RDPS_WindDir_IsbL-0350_RLatLon0.09_PT083H.grib2 2026-04-19 03:07 482K
20260419T00Z_MSC_RDPS_WindDir_IsbL-0400_RLatLon0.09_PT083H.grib2 2026-04-19 03:07 502K
20260419T00Z_MSC_RDPS_WindDir_IsbL-0450_RLatLon0.09_PT083H.grib2 2026-04-19 03:07 520K
20260419T00Z_MSC_RDPS_WindDir_IsbL-0500_RLatLon0.09_PT083H.grib2 2026-04-19 03:07 540K
20260419T00Z_MSC_RDPS_WindDir_IsbL-0550_RLatLon0.09_PT083H.grib2 2026-04-19 03:07 562K
20260419T00Z_MSC_RDPS_WindDir_IsbL-0600_RLatLon0.09_PT083H.grib2 2026-04-19 03:07 592K
20260419T00Z_MSC_RDPS_WindDir_IsbL-0650_RLatLon0.09_PT083H.grib2 2026-04-19 03:07 633K
20260419T00Z_MSC_RDPS_WindDir_IsbL-0700_RLatLon0.09_PT083H.grib2 2026-04-19 03:07 675K
20260419T00Z_MSC_RDPS_WindDir_IsbL-0750_RLatLon0.09_PT083H.grib2 2026-04-19 03:07 723K
20260419T00Z_MSC_RDPS_WindDir_IsbL-0800_RLatLon0.09_PT083H.grib2 2026-04-19 03:07 791K
20260419T00Z_MSC_RDPS_WindDir_IsbL-0850_RLatLon0.09_PT083H.grib2 2026-04-19 03:07 853K
20260419T00Z_MSC_RDPS_WindDir_IsbL-0875_RLatLon0.09_PT083H.grib2 2026-04-19 03:07 875K
20260419T00Z_MSC_RDPS_WindDir_IsbL-0900_RLatLon0.09_PT083H.grib2 2026-04-19 03:07 890K
20260419T00Z_MSC_RDPS_WindDir_IsbL-0925_RLatLon0.09_PT083H.grib2 2026-04-19 03:07 903K
20260419T00Z_MSC_RDPS_WindDir_IsbL-0950_RLatLon0.09_PT083H.grib2 2026-04-19 03:07 905K
20260419T00Z_MSC_RDPS_WindDir_IsbL-0970_RLatLon0.09_PT083H.grib2 2026-04-19 03:07 916K
20260419T00Z_MSC_RDPS_WindDir_IsbL-0985_RLatLon0.09_PT083H.grib2 2026-04-19 03:07 929K
20260419T00Z_MSC_RDPS_WindDir_IsbL-1000_RLatLon0.09_PT083H.grib2 2026-04-19 03:07 949K
20260419T00Z_MSC_RDPS_WindDir_IsbL-1015_RLatLon0.09_PT083H.grib2 2026-04-19 03:07 969K
20260419T00Z_MSC_RDPS_WindGust-Max_AGL-10m_RLatLon0.09_PT083H.grib2 2026-04-19 03:07 1.0M
20260419T00Z_MSC_RDPS_WindGust-Min_AGL-10m_RLatLon0.09_PT083H.grib2 2026-04-19 03:07 1.0M
20260419T00Z_MSC_RDPS_WindGust_AGL-10m_RLatLon0.09_PT083H.grib2 2026-04-19 03:07 1.0M
20260419T00Z_MSC_RDPS_WindSpeed_AGL-10m_RLatLon0.09_PT083H.grib2 2026-04-19 03:07 858K
20260419T00Z_MSC_RDPS_WindSpeed_AGL-120m_RLatLon0.09_PT083H.grib2 2026-04-19 03:07 555K
20260419T00Z_MSC_RDPS_WindSpeed_AGL-40m_RLatLon0.09_PT083H.grib2 2026-04-19 03:07 559K
20260419T00Z_MSC_RDPS_WindSpeed_AGL-80m_RLatLon0.09_PT083H.grib2 2026-04-19 03:07 557K
20260419T00Z_MSC_RDPS_WindSpeed_IsbL-0001_RLatLon0.09_PT083H.grib2 2026-04-19 03:07 320K
20260419T00Z_MSC_RDPS_WindSpeed_IsbL-0005_RLatLon0.09_PT083H.grib2 2026-04-19 03:07 299K
20260419T00Z_MSC_RDPS_WindSpeed_IsbL-0010_RLatLon0.09_PT083H.grib2 2026-04-19 03:07 313K
20260419T00Z_MSC_RDPS_WindSpeed_IsbL-0020_RLatLon0.09_PT083H.grib2 2026-04-19 03:07 334K
20260419T00Z_MSC_RDPS_WindSpeed_IsbL-0030_RLatLon0.09_PT083H.grib2 2026-04-19 03:07 336K
20260419T00Z_MSC_RDPS_WindSpeed_IsbL-0050_RLatLon0.09_PT083H.grib2 2026-04-19 03:07 484K
20260419T00Z_MSC_RDPS_WindSpeed_IsbL-0100_RLatLon0.09_PT083H.grib2 2026-04-19 03:07 500K
20260419T00Z_MSC_RDPS_WindSpeed_IsbL-0150_RLatLon0.09_PT083H.grib2 2026-04-19 03:07 491K
20260419T00Z_MSC_RDPS_WindSpeed_IsbL-0175_RLatLon0.09_PT083H.grib2 2026-04-19 03:07 412K
20260419T00Z_MSC_RDPS_WindSpeed_IsbL-0200_RLatLon0.09_PT083H.grib2 2026-04-19 03:07 430K
20260419T00Z_MSC_RDPS_WindSpeed_IsbL-0225_RLatLon0.09_PT083H.grib2 2026-04-19 03:07 435K
20260419T00Z_MSC_RDPS_WindSpeed_IsbL-0250_RLatLon0.09_PT083H.grib2 2026-04-19 03:07 454K
20260419T00Z_MSC_RDPS_WindSpeed_IsbL-0275_RLatLon0.09_PT083H.grib2 2026-04-19 03:07 468K
20260419T00Z_MSC_RDPS_WindSpeed_IsbL-0300_RLatLon0.09_PT083H.grib2 2026-04-19 03:07 465K
20260419T00Z_MSC_RDPS_WindSpeed_IsbL-0350_RLatLon0.09_PT083H.grib2 2026-04-19 03:07 476K
20260419T00Z_MSC_RDPS_WindSpeed_IsbL-0400_RLatLon0.09_PT083H.grib2 2026-04-19 03:07 480K
20260419T00Z_MSC_RDPS_WindSpeed_IsbL-0450_RLatLon0.09_PT083H.grib2 2026-04-19 03:07 482K
20260419T00Z_MSC_RDPS_WindSpeed_IsbL-0500_RLatLon0.09_PT083H.grib2 2026-04-19 03:07 467K
20260419T00Z_MSC_RDPS_WindSpeed_IsbL-0550_RLatLon0.09_PT083H.grib2 2026-04-19 03:07 472K
20260419T00Z_MSC_RDPS_WindSpeed_IsbL-0600_RLatLon0.09_PT083H.grib2 2026-04-19 03:07 603K
20260419T00Z_MSC_RDPS_WindSpeed_IsbL-0650_RLatLon0.09_PT083H.grib2 2026-04-19 03:07 665K
20260419T00Z_MSC_RDPS_WindSpeed_IsbL-0700_RLatLon0.09_PT083H.grib2 2026-04-19 03:07 685K
20260419T00Z_MSC_RDPS_WindSpeed_IsbL-0750_RLatLon0.09_PT083H.grib2 2026-04-19 03:07 717K
20260419T00Z_MSC_RDPS_WindSpeed_IsbL-0800_RLatLon0.09_PT083H.grib2 2026-04-19 03:07 769K
20260419T00Z_MSC_RDPS_WindSpeed_IsbL-0850_RLatLon0.09_PT083H.grib2 2026-04-19 03:07 827K
20260419T00Z_MSC_RDPS_WindSpeed_IsbL-0875_RLatLon0.09_PT083H.grib2 2026-04-19 03:07 846K
20260419T00Z_MSC_RDPS_WindSpeed_IsbL-0900_RLatLon0.09_PT083H.grib2 2026-04-19 03:07 860K
20260419T00Z_MSC_RDPS_WindSpeed_IsbL-0925_RLatLon0.09_PT083H.grib2 2026-04-19 03:07 871K
20260419T00Z_MSC_RDPS_WindSpeed_IsbL-0950_RLatLon0.09_PT083H.grib2 2026-04-19 03:07 870K
20260419T00Z_MSC_RDPS_WindSpeed_IsbL-0970_RLatLon0.09_PT083H.grib2 2026-04-19 03:07 873K
20260419T00Z_MSC_RDPS_WindSpeed_IsbL-0985_RLatLon0.09_PT083H.grib2 2026-04-19 03:07 869K
20260419T00Z_MSC_RDPS_WindSpeed_IsbL-1000_RLatLon0.09_PT083H.grib2 2026-04-19 03:07 867K
20260419T00Z_MSC_RDPS_WindSpeed_IsbL-1015_RLatLon0.09_PT083H.grib2 2026-04-19 03:07 859K
20260419T00Z_MSC_RDPS_WindU_AGL-10m_RLatLon0.09_PT083H.grib2 2026-04-19 03:07 441K
20260419T00Z_MSC_RDPS_WindU_AGL-120m_RLatLon0.09_PT083H.grib2 2026-04-19 03:07 549K
20260419T00Z_MSC_RDPS_WindU_AGL-40m_RLatLon0.09_PT083H.grib2 2026-04-19 03:07 552K
20260419T00Z_MSC_RDPS_WindU_AGL-80m_RLatLon0.09_PT083H.grib2 2026-04-19 03:07 551K
20260419T00Z_MSC_RDPS_WindU_IsbL-0001_RLatLon0.09_PT083H.grib2 2026-04-19 03:07 236K
20260419T00Z_MSC_RDPS_WindU_IsbL-0005_RLatLon0.09_PT083H.grib2 2026-04-19 03:07 332K
20260419T00Z_MSC_RDPS_WindU_IsbL-0010_RLatLon0.09_PT083H.grib2 2026-04-19 03:07 346K
20260419T00Z_MSC_RDPS_WindU_IsbL-0020_RLatLon0.09_PT083H.grib2 2026-04-19 03:07 364K
20260419T00Z_MSC_RDPS_WindU_IsbL-0030_RLatLon0.09_PT083H.grib2 2026-04-19 03:07 365K
20260419T00Z_MSC_RDPS_WindU_IsbL-0050_RLatLon0.09_PT083H.grib2 2026-04-19 03:07 370K
20260419T00Z_MSC_RDPS_WindU_IsbL-0100_RLatLon0.09_PT083H.grib2 2026-04-19 03:07 453K
20260419T00Z_MSC_RDPS_WindU_IsbL-0150_RLatLon0.09_PT083H.grib2 2026-04-19 03:07 379K
20260419T00Z_MSC_RDPS_WindU_IsbL-0175_RLatLon0.09_PT083H.grib2 2026-04-19 03:07 425K
20260419T00Z_MSC_RDPS_WindU_IsbL-0200_RLatLon0.09_PT083H.grib2 2026-04-19 03:07 443K
20260419T00Z_MSC_RDPS_WindU_IsbL-0225_RLatLon0.09_PT083H.grib2 2026-04-19 03:07 348K
20260419T00Z_MSC_RDPS_WindU_IsbL-0250_RLatLon0.09_PT083H.grib2 2026-04-19 03:07 346K
20260419T00Z_MSC_RDPS_WindU_IsbL-0275_RLatLon0.09_PT083H.grib2 2026-04-19 03:07 357K
20260419T00Z_MSC_RDPS_WindU_IsbL-0300_RLatLon0.09_PT083H.grib2 2026-04-19 03:07 353K
20260419T00Z_MSC_RDPS_WindU_IsbL-0350_RLatLon0.09_PT083H.grib2 2026-04-19 03:07 360K
20260419T00Z_MSC_RDPS_WindU_IsbL-0400_RLatLon0.09_PT083H.grib2 2026-04-19 03:07 365K
20260419T00Z_MSC_RDPS_WindU_IsbL-0450_RLatLon0.09_PT083H.grib2 2026-04-19 03:07 367K
20260419T00Z_MSC_RDPS_WindU_IsbL-0500_RLatLon0.09_PT083H.grib2 2026-04-19 03:07 368K
20260419T00Z_MSC_RDPS_WindU_IsbL-0550_RLatLon0.09_PT083H.grib2 2026-04-19 03:07 477K
20260419T00Z_MSC_RDPS_WindU_IsbL-0600_RLatLon0.09_PT083H.grib2 2026-04-19 03:07 488K
20260419T00Z_MSC_RDPS_WindU_IsbL-0650_RLatLon0.09_PT083H.grib2 2026-04-19 03:07 504K
20260419T00Z_MSC_RDPS_WindU_IsbL-0700_RLatLon0.09_PT083H.grib2 2026-04-19 03:07 522K
20260419T00Z_MSC_RDPS_WindU_IsbL-0750_RLatLon0.09_PT083H.grib2 2026-04-19 03:07 549K
20260419T00Z_MSC_RDPS_WindU_IsbL-0800_RLatLon0.09_PT083H.grib2 2026-04-19 03:07 584K
20260419T00Z_MSC_RDPS_WindU_IsbL-0850_RLatLon0.09_PT083H.grib2 2026-04-19 03:07 633K
20260419T00Z_MSC_RDPS_WindU_IsbL-0875_RLatLon0.09_PT083H.grib2 2026-04-19 03:07 650K
20260419T00Z_MSC_RDPS_WindU_IsbL-0900_RLatLon0.09_PT083H.grib2 2026-04-19 03:07 661K
20260419T00Z_MSC_RDPS_WindU_IsbL-0925_RLatLon0.09_PT083H.grib2 2026-04-19 03:07 669K
20260419T00Z_MSC_RDPS_WindU_IsbL-0950_RLatLon0.09_PT083H.grib2 2026-04-19 03:07 668K
20260419T00Z_MSC_RDPS_WindU_IsbL-0970_RLatLon0.09_PT083H.grib2 2026-04-19 03:07 667K
20260419T00Z_MSC_RDPS_WindU_IsbL-0985_RLatLon0.09_PT083H.grib2 2026-04-19 03:07 806K
20260419T00Z_MSC_RDPS_WindU_IsbL-1000_RLatLon0.09_PT083H.grib2 2026-04-19 03:07 804K
20260419T00Z_MSC_RDPS_WindU_IsbL-1015_RLatLon0.09_PT083H.grib2 2026-04-19 03:07 796K
20260419T00Z_MSC_RDPS_WindV_AGL-10m_RLatLon0.09_PT083H.grib2 2026-04-19 03:07 442K
20260419T00Z_MSC_RDPS_WindV_AGL-120m_RLatLon0.09_PT083H.grib2 2026-04-19 03:07 430K
20260419T00Z_MSC_RDPS_WindV_AGL-40m_RLatLon0.09_PT083H.grib2 2026-04-19 03:07 552K
20260419T00Z_MSC_RDPS_WindV_AGL-80m_RLatLon0.09_PT083H.grib2 2026-04-19 03:07 549K
20260419T00Z_MSC_RDPS_WindV_IsbL-0001_RLatLon0.09_PT083H.grib2 2026-04-19 03:07 290K
20260419T00Z_MSC_RDPS_WindV_IsbL-0005_RLatLon0.09_PT083H.grib2 2026-04-19 03:07 286K
20260419T00Z_MSC_RDPS_WindV_IsbL-0010_RLatLon0.09_PT083H.grib2 2026-04-19 03:07 304K
20260419T00Z_MSC_RDPS_WindV_IsbL-0020_RLatLon0.09_PT083H.grib2 2026-04-19 03:07 327K
20260419T00Z_MSC_RDPS_WindV_IsbL-0030_RLatLon0.09_PT083H.grib2 2026-04-19 03:07 366K
20260419T00Z_MSC_RDPS_WindV_IsbL-0050_RLatLon0.09_PT083H.grib2 2026-04-19 03:07 367K
20260419T00Z_MSC_RDPS_WindV_IsbL-0100_RLatLon0.09_PT083H.grib2 2026-04-19 03:07 346K
20260419T00Z_MSC_RDPS_WindV_IsbL-0150_RLatLon0.09_PT083H.grib2 2026-04-19 03:07 398K
20260419T00Z_MSC_RDPS_WindV_IsbL-0175_RLatLon0.09_PT083H.grib2 2026-04-19 03:07 423K
20260419T00Z_MSC_RDPS_WindV_IsbL-0200_RLatLon0.09_PT083H.grib2 2026-04-19 03:07 440K
20260419T00Z_MSC_RDPS_WindV_IsbL-0225_RLatLon0.09_PT083H.grib2 2026-04-19 03:07 344K
20260419T00Z_MSC_RDPS_WindV_IsbL-0250_RLatLon0.09_PT083H.grib2 2026-04-19 03:07 344K
20260419T00Z_MSC_RDPS_WindV_IsbL-0275_RLatLon0.09_PT083H.grib2 2026-04-19 03:07 379K
20260419T00Z_MSC_RDPS_WindV_IsbL-0300_RLatLon0.09_PT083H.grib2 2026-04-19 03:07 376K
20260419T00Z_MSC_RDPS_WindV_IsbL-0350_RLatLon0.09_PT083H.grib2 2026-04-19 03:07 384K
20260419T00Z_MSC_RDPS_WindV_IsbL-0400_RLatLon0.09_PT083H.grib2 2026-04-19 03:07 363K
20260419T00Z_MSC_RDPS_WindV_IsbL-0450_RLatLon0.09_PT083H.grib2 2026-04-19 03:07 365K
20260419T00Z_MSC_RDPS_WindV_IsbL-0500_RLatLon0.09_PT083H.grib2 2026-04-19 03:07 470K
20260419T00Z_MSC_RDPS_WindV_IsbL-0550_RLatLon0.09_PT083H.grib2 2026-04-19 03:07 476K
20260419T00Z_MSC_RDPS_WindV_IsbL-0600_RLatLon0.09_PT083H.grib2 2026-04-19 03:07 485K
20260419T00Z_MSC_RDPS_WindV_IsbL-0650_RLatLon0.09_PT083H.grib2 2026-04-19 03:07 500K
20260419T00Z_MSC_RDPS_WindV_IsbL-0700_RLatLon0.09_PT083H.grib2 2026-04-19 03:07 504K
20260419T00Z_MSC_RDPS_WindV_IsbL-0750_RLatLon0.09_PT083H.grib2 2026-04-19 03:07 532K
20260419T00Z_MSC_RDPS_WindV_IsbL-0800_RLatLon0.09_PT083H.grib2 2026-04-19 03:07 579K
20260419T00Z_MSC_RDPS_WindV_IsbL-0850_RLatLon0.09_PT083H.grib2 2026-04-19 03:07 630K
20260419T00Z_MSC_RDPS_WindV_IsbL-0875_RLatLon0.09_PT083H.grib2 2026-04-19 03:07 646K
20260419T00Z_MSC_RDPS_WindV_IsbL-0900_RLatLon0.09_PT083H.grib2 2026-04-19 03:07 657K
20260419T00Z_MSC_RDPS_WindV_IsbL-0925_RLatLon0.09_PT083H.grib2 2026-04-19 03:07 666K
20260419T00Z_MSC_RDPS_WindV_IsbL-0950_RLatLon0.09_PT083H.grib2 2026-04-19 03:07 665K
20260419T00Z_MSC_RDPS_WindV_IsbL-0970_RLatLon0.09_PT083H.grib2 2026-04-19 03:07 665K
20260419T00Z_MSC_RDPS_WindV_IsbL-0985_RLatLon0.09_PT083H.grib2 2026-04-19 03:07 663K
20260419T00Z_MSC_RDPS_WindV_IsbL-1000_RLatLon0.09_PT083H.grib2 2026-04-19 03:07 802K
20260419T00Z_MSC_RDPS_WindV_IsbL-1015_RLatLon0.09_PT083H.grib2 2026-04-19 03:07 796K